INS-1A

Last updated on Sat Jun 17 2017 00:17:32 GMT+0000 (Coordinated Universal Time)

1 41949U 17008B 17167.48952199 .00001442 00000-0 66984-4 0 9990 2 41949 97.4941 228.6822 0009857 182.8115 177.3067 15.21602021 18424
UTC large
Height (km)
Speed (km/s)
/
Latitude / Longitude
Inclination (degrees)
Orbital Period (minutes)
Azimuth
Elevation
Range (km)
Doppler Factor

Next 0 passes for location: London (51.5072 / 0.1276)

Sorry there are no passes over London.